Le nostre stazioni meteo in Italia

Pubblicità
Il mio iltempo24.it
Lulea/Kallax, Svezia (2186): Temperatura & dewpoint: 14.01.2018 06:00:00 - 20.01.2018 06:00:00 (CET)Lulea/Kallax, Svezia (2186): velocità del vento & gusts: 14.01.2018 06:00:00 - 20.01.2018 06:00:00 (CET)Lulea/Kallax, Svezia (2186): direzione del vento: 14.01.2018 06:00:00 - 20.01.2018 06:00:00 (CET)Lulea/Kallax, Svezia (2186): reduced air pressure: 14.01.2018 06:00:00 - 20.01.2018 06:00:00 (CET)Lulea/Kallax, Svezia (2186): visibility: 14.01.2018 06:00:00 - 20.01.2018 06:00:00 (CET)Lulea/Kallax, Svezia (2186): precipitazioni: 14.01.2018 06:00:00 - 20.01.2018 06:00:00 (CET)
Data & Tempo tt [°C] td [°C] ff [km/h] ff [kn] fx [km/h] fx [kn] dd ppp [hPa] vv [km] rr [mm]
20.01.2018 06:00:00 -14,1 -15,6 11 6 18 10 NNE 1012,3 7 0,1
20.01.2018 05:00:00 -14,1 -15,8 7 4 14 8 N 1012,5 15 0,0
20.01.2018 04:00:00 -14,7 -16,4 7 4 14 8 NNE 1012,2 8 0,1
20.01.2018 03:00:00 -14,9 -16,6 7 4 14 8 N 1012,1 27 0,0
20.01.2018 02:00:00 -14,7 -16,4 11 6 14 8 N 1012,0 17 0,0
20.01.2018 01:00:00 -13,9 -15,4 11 6 14 8 NNE 1011,9 4,9 0,2
20.01.2018 00:00:00 -13,6 -15,2 7 4 11 6 N 1011,6 4,5 0,1
19.01.2018 23:00:00 -13,8 -15,4 7 4 11 6 N 1011,3 8 0,0
19.01.2018 22:00:00 -14,1 -15,7 7 4 14 8 N 1010,8 6 0,0
19.01.2018 21:00:00 -14,3 -15,8 7 4 18 10 N 1010,2 19 0,0
19.01.2018 20:00:00 -15,1 -16,6 11 6 18 10 N 1009,9 18 0,0
19.01.2018 19:00:00 -14,4 -15,9 7 4 14 8 NNO 1009,6 35 0,0
19.01.2018 18:00:00 -13,5 -15,1 7 4 14 8 N 1009,3 18 0,0
19.01.2018 17:00:00 -13,0 -14,6 7 4 14 8 N 1009,0 7 0,2
19.01.2018 16:00:00 -12,7 -14,1 7 4 14 8 N 1008,5 2,9 0,3
19.01.2018 15:00:00 -12,7 -14,1 11 6 18 10 N 1007,8 3,6 0,4
19.01.2018 14:00:00 -12,4 -13,8 11 6 18 10 N 1007,6 2,0 0,2
19.01.2018 13:00:00 -12,2 -13,6 11 6 14 8 N 1007,1 6 0,1
19.01.2018 12:00:00 -12,3 -13,7 7 4 11 6 N 1006,8 7 0,0
19.01.2018 11:00:00 -12,4 -13,8 8 4 14 8 N 1006,4 10 0,0
19.01.2018 10:00:00 -13,0 -14,2 8 4 14 8 N 1006,0 10 0,0
19.01.2018 09:00:00 -11,5 -12,9 5 3 14 8 N 1005,5 10 0,0
19.01.2018 08:00:00 -10,3 -11,6 8 4 14 8 NNE 1005,0 10 0,0
19.01.2018 07:00:00 -9,7 -11,0 9 5 18 10 NNE 1004,7 7 0,2
19.01.2018 06:00:00 -9,3 -10,5 9 5 18 10 NNE 1004,4 4,3 0,4
19.01.2018 05:00:00 -9,2 -10,4 9 5 18 10 NNE 1004,1 5 0,3
19.01.2018 04:00:00 -9,0 -10,2 11 6 18 10 NE 1003,9 10 0,1
19.01.2018 03:00:00 -8,6 -9,8 11 6 22 12 NE 1003,9 10 0,2
19.01.2018 02:00:00 -8,2 -9,4 11 6 22 12 NE 1003,8 5 0,5
19.01.2018 01:00:00 -7,8 -8,9 11 6 25 14 ENE 1003,8 5 0,4
19.01.2018 00:00:00 -7,4 -8,3 15 8 25 14 ENE 1003,6 8 0,2
18.01.2018 23:00:00 -6,8 -7,7 16 9 25 14 E 1003,7 6 0,5
18.01.2018 22:00:00 -5,9 -6,7 9 5 22 12 ENE 1003,6 3,5 0,6
18.01.2018 21:00:00 -5,9 -6,7 11 6 22 12 ENE 1003,5 2,7 1,0
18.01.2018 20:00:00 -6,1 -6,9 13 7 22 12 ENE 1003,4 2,5 0,6
18.01.2018 19:00:00 -5,9 -6,7 11 6 22 12 ENE 1003,3 4,0 0,4
18.01.2018 18:00:00 -5,9 -6,7 11 6 22 12 ENE 1003,1 6 0,4
18.01.2018 17:00:00 -5,8 -6,6 9 5 18 10 ENE 1003,2 1,9 0,8
18.01.2018 16:00:00 -7,1 -8,0 8 4 14 8 N 1003,2 3,5 0,2
18.01.2018 15:00:00 -7,8 -8,7 8 4 14 8 N 1003,3 10 0,1
18.01.2018 14:00:00 -8,3 -9,4 9 5 18 10 N 1003,5 10 0,3
18.01.2018 13:00:00 -9,3 -10,5 11 6 18 10 NNE 1003,5 5 0,6
18.01.2018 12:00:00 -10,2 -11,5 11 6 22 12 NNE 1003,6 3,0 1,0
18.01.2018 11:00:00 -10,9 -12,2 11 6 22 12 NNE 1003,8 1,5 2,0
18.01.2018 10:00:00 -11,7 -13,1 11 6 22 12 NNE 1004,1 3,5 1,0
18.01.2018 09:00:00 -12,2 -13,6 13 7 22 12 NNE 1004,0 2,5 1,0
18.01.2018 08:00:00 -12,4 -13,8 13 7 22 12 NNE 1003,9 3,5 0,5
18.01.2018 07:00:00 -12,1 -13,5 11 6 25 14 NE 1004,1 4,5 0,7
18.01.2018 06:00:00 -11,4 -12,7 15 8 25 14 NE 1004,3 4,0 0,8
18.01.2018 05:00:00 -10,7 -12,0 13 7 22 12 NE 1004,7 2,3 0,5
18.01.2018 04:00:00 -9,8 -11,0 11 6 22 12 NE 1004,8 3,3 0,5
18.01.2018 03:00:00 -8,6 -9,9 11 6 22 12 E 1004,9 6 0,3
18.01.2018 02:00:00 -7,4 -9,6 9 5 18 10 E 1005,1 8 0,2
18.01.2018 01:00:00 -7,3 -9,4 8 4 18 10 E 1005,2 8 0,0
18.01.2018 00:00:00 -7,3 -8,9 18 10 25 14 SE 1005,1 10 0,0
17.01.2018 23:00:00 -7,3 -8,5 21 11 25 14 SE 1004,9 6 0,1
17.01.2018 22:00:00 -7,1 -8,2 15 8 22 12 SE 1004,9 10 0,2
17.01.2018 21:00:00 -7,7 -8,8 9 5 18 10 ESE 1004,6 7 0,1
17.01.2018 20:00:00 -7,2 -8,1 16 9 25 14 SE 1004,7 1,8 0,2
17.01.2018 19:00:00 -7,0 -8,2 21 11 32 18 SE 1004,5 2,3 0,3
17.01.2018 18:00:00 -6,6 -9,6 26 14 32 18 SE 1004,6 10 0,1
17.01.2018 17:00:00 -6,3 -9,3 26 14 36 19 SSE 1004,2 10 0,0
17.01.2018 16:00:00 -6,1 -9,3 26 14 32 18 SE 1004,1 10 0,0
17.01.2018 15:00:00 -6,9 -9,0 9 5 25 14 SE 1004,4 10 0,1
17.01.2018 14:00:00 -7,1 -8,9 21 11 29 16 SE 1004,6 4,0 0,2
17.01.2018 13:00:00 -7,0 -8,9 22 12 32 18 SSE 1004,6 4,5 0,4
17.01.2018 12:00:00 -6,8 -8,3 29 16 36 19 SSE 1004,9 2,0 0,3
17.01.2018 11:00:00 -6,8 -9,2 31 17 40 21 SSE 1004,7 10 0,0
17.01.2018 10:00:00 -6,3 -8,7 31 17 40 21 SE 1004,5 10 0,0
17.01.2018 09:00:00 -6,4 -8,7 15 8 22 12 SE 1004,3 10 0,0
17.01.2018 08:00:00 -8,2 -10,6 16 9 29 16 SE 1003,9 10 0,0
17.01.2018 07:00:00 -5,9 -8,6 24 13 32 18 SE 1003,5 10 0,0
17.01.2018 06:00:00 -5,5 -8,6 26 14 32 18 SE 1003,2 10 0,0
17.01.2018 05:00:00 -5,4 -8,3 26 14 32 18 SE 1003,1 10 0,0
17.01.2018 04:00:00 -5,3 -8,2 26 14 36 19 SE 1003,0 10 0,0
17.01.2018 03:00:00 -5,3 -7,7 29 16 40 21 SE 1002,9 7 0,0
17.01.2018 02:00:00 -4,8 -7,9 26 14 36 19 SE 1002,7 10 0,0
17.01.2018 01:00:00 -4,7 -7,5 29 16 36 19 SSE 1002,6 10 0,0
17.01.2018 00:00:00 -4,6 -7,8 28 15 32 18 SSE 1002,3 10 0,0
16.01.2018 23:00:00 -4,8 -8,4 22 12 32 18 S 1002,1 10 0,0
16.01.2018 22:00:00 -4,8 -8,4 26 14 40 21 SSE 1001,9 10 0,0
16.01.2018 21:00:00 -4,8 -8,0 31 17 40 21 SSE 1001,6 10 0,0
16.01.2018 20:00:00 -4,9 -8,0 26 14 40 21 SSE 1001,5 10 0,0
16.01.2018 19:00:00 -5,2 -7,6 31 17 40 21 SSE 1001,6 10 0,0
16.01.2018 18:00:00 -5,3 -7,9 29 16 40 21 SSE 1001,6 10 0,0
16.01.2018 17:00:00 -5,2 -7,8 28 15 40 21 SSE 1001,6 10 0,0
16.01.2018 16:00:00 -5,3 -7,3 26 14 40 21 SSE 1002,0 6 0,3
16.01.2018 15:00:00 -5,4 -7,5 31 17 40 21 SSE 1002,5 5 0,4
16.01.2018 14:00:00 -5,6 -7,7 29 16 43 23 SSE 1002,6 5 0,2
16.01.2018 13:00:00 -5,7 -7,4 28 15 43 23 SSE 1002,9 4,5 0,3
16.01.2018 12:00:00 -5,7 -6,9 31 17 47 25 SSE 1003,6 4,0 0,3
16.01.2018 11:00:00 -5,7 -6,9 35 19 50 27 SSE 1004,1 3,5 0,3
16.01.2018 10:00:00 -5,5 -6,5 35 19 50 27 SSE 1004,1 2,5 0,6
16.01.2018 09:00:00 -5,4 -6,4 34 18 47 25 SSE 1004,5 2,5 0,7
16.01.2018 08:00:00 -5,6 -6,6 37 20 54 29 SSE 1004,7 2,0 0,8
16.01.2018 07:00:00 -5,7 -7,1 44 24 61 33 SSE 1004,7 8 0,1
16.01.2018 06:00:00 -5,4 -7,2 39 21 61 33 SSE 1004,8 10 0,0
16.01.2018 05:00:00 -5,0 -7,0 42 23 61 33 SSE 1005,4 8 0,0
16.01.2018 04:00:00 -5,0 -7,1 41 22 54 29 SSE 1006,7 10 0,0
16.01.2018 03:00:00 -4,7 -6,5 39 21 61 33 SSE 1007,5 9 0,0
16.01.2018 02:00:00 -4,9 -6,4 41 22 61 33 SSE 1008,6 8 0,0
16.01.2018 01:00:00 -4,4 -6,1 41 22 68 37 SSE 1009,3 6 0,0
16.01.2018 00:00:00 -3,7 -5,4 41 22 61 33 S 1009,5 9 0,0
15.01.2018 23:00:00 -3,1 -4,8 42 23 61 33 S 1009,6 10 0,0
15.01.2018 22:00:00 -2,9 -4,8 42 23 61 33 S 1010,0 10 0,0
15.01.2018 21:00:00 -2,7 -4,6 41 22 58 31 S 1010,7 10 0,0
15.01.2018 20:00:00 -2,5 -4,5 42 23 58 31 S 1011,5 10 0,0
15.01.2018 19:00:00 -2,5 -4,4 42 23 61 33 S 1012,2 10 0,0
15.01.2018 18:00:00 -2,6 -4,3 39 21 61 33 S 1012,8 10 0,0
15.01.2018 17:00:00 -2,4 -4,0 41 22 61 33 S 1013,5 10 0,0
15.01.2018 16:00:00 -2,3 -3,9 39 21 58 31 S 1014,4 10 0,0
15.01.2018 15:00:00 -2,2 -3,8 39 21 58 31 S 1015,0 10 0,0
15.01.2018 14:00:00 -2,0 -3,6 37 20 58 31 S 1015,5 10 0,0
15.01.2018 13:00:00 -1,9 -3,5 35 19 58 31 S 1016,5 10 0,0
15.01.2018 12:00:00 -1,9 -3,4 37 20 58 31 S 1016,7 10 0,0
15.01.2018 11:00:00 -1,7 -3,1 39 21 58 31 S 1017,1 10 0,0
15.01.2018 10:00:00 -1,4 -3,0 41 22 58 31 S 1017,3 10 0,0
15.01.2018 09:00:00 -1,1 -2,7 37 20 58 31 S 1017,6 10 0,0
15.01.2018 08:00:00 -0,7 -2,7 34 18 58 31 S 1017,6 10 0,0
15.01.2018 07:00:00 -0,5 -3,5 31 17 54 29 S 1018,2 10 0,0
15.01.2018 06:00:00 -0,4 -3,1 24 13 40 21 SSO 1018,7 10 0,0
15.01.2018 05:00:00 -0,5 -3,7 22 12 43 23 SSO 1019,2 10 0,0
15.01.2018 04:00:00 -0,3 -3,3 29 16 47 25 S 1019,5 40 0,0
15.01.2018 03:00:00 -0,3 -2,0 29 16 40 21 S 1020,1 10 0,0
15.01.2018 02:00:00 -0,5 -3,0 24 13 40 21 S 1020,9 10 0,0
15.01.2018 01:00:00 -1,0 -4,3 21 11 50 27 SSO 1022,0 10 0,0
15.01.2018 00:00:00 -0,5 -3,9 28 15 50 27 S 1022,1 10 0,0
14.01.2018 23:00:00 -0,6 -3,6 26 14 47 25 S 1022,5 10 0,0
14.01.2018 22:00:00 -1,6 -4,3 18 10 40 21 SSO 1023,6 10 0,0
14.01.2018 21:00:00 -2,2 -4,9 28 15 43 23 SSO 1024,4 10 0,0
14.01.2018 20:00:00 -1,4 -4,1 28 15 43 23 S 1024,8 10 0,0
14.01.2018 19:00:00 -1,4 -3,1 15 8 25 14 S 1025,2 10 0,0
14.01.2018 18:00:00 -1,9 -3,2 11 6 18 10 S 1026,2 10 0,0
14.01.2018 17:00:00 -2,2 -3,3 11 6 14 8 S 1027,3 10 0,0
14.01.2018 16:00:00 -3,8 -4,5 5 3 11 6 S 1028,0 10 0,0
14.01.2018 15:00:00 -7,4 -8,2 0 0 0 0 N 1029,1 10 0,0
14.01.2018 14:00:00 -7,4 -8,2 0 0 4 2 N 1030,0 10 0,0
14.01.2018 13:00:00 -7,4 -8,2 2 1 4 2 - 1030,7 10 0,0
14.01.2018 12:00:00 -7,2 -8,0 4 2 7 4 O 1031,3 10 0,0
14.01.2018 11:00:00 -6,4 -7,2 5 3 11 6 OSO 1031,3 10 0,0
14.01.2018 10:00:00 -5,5 -6,3 8 4 11 6 SO 1031,3 10 0,0
14.01.2018 09:00:00 -5,5 -6,3 8 4 11 6 SO 1031,5 10 0,0
14.01.2018 08:00:00 -5,9 -6,6 4 2 7 4 SSO 1031,5 10 0,0
14.01.2018 07:00:00 -6,8 -7,5 2 1 4 2 - 1031,8 10 0,0
14.01.2018 06:00:00 -6,9 -7,7 2 1 7 4 SO 1032,0 10 0,0

tt = Temperatura
td = dewpoint
ff = velocità del vento
fx = gusts
dd = direzione del vento
ppp = reduced air pressure
vv = visibility
rr = precipitazioni

Stazioni seguenti

WeatherPro
AMSI
MeteoEarth